Time,TemperatureF,DewpointF,PressureIn,WindDirection,WindDirectionDegrees,WindSpeedMPH,WindSpeedGustMPH,Humidity,HourlyPrecipIn,Conditions,Clouds,dailyrainin,SolarRadiationWatts/m^2,SoftwareType,DateUTC
2013-11-10 00:00:00,37.0,28.1,30.09,WSW,252,4.0,11.0,70,0.00,,---,0.00,0.00,VWS V14.01,2013-11-10 06:00:00,
2013-11-10 00:01:00,36.9,28.0,30.09,West,273,4.0,9.0,70,0.00,,---,0.00,0.00,VWS V14.01,2013-11-10 06:01:00,
2013-11-10 00:06:00,36.9,28.0,30.10,West,260,5.0,9.0,70,0.00,,---,0.00,0.00,VWS V14.01,2013-11-10 06:06:00,
2013-11-10 00:11:00,37.0,28.1,30.10,West,261,5.0,10.0,70,0.00,,---,0.00,0.00,VWS V14.01,2013-11-10 06:11:00,
2013-11-10 00:16:00,37.1,28.2,30.10,WSW,250,9.0,10.0,70,0.00,,---,0.00,0.00,VWS V14.01,2013-11-10 06:16:00,
2013-11-10 00:21:00,37.3,28.4,30.11,West,259,7.0,11.0,70,0.00,,---,0.00,0.00,VWS V14.01,2013-11-10 06:21:00,
2013-11-10 00:26:00,37.5,28.6,30.11,West,259,7.0,11.0,70,0.00,,---,0.00,0.00,VWS V14.01,2013-11-10 06:26:00,
2013-11-10 00:31:00,37.5,28.3,30.11,WSW,253,5.0,11.0,69,0.00,,---,0.00,0.00,VWS V14.01,2013-11-10 06:31:00,
2013-11-10 00:36:00,37.6,28.7,30.11,SW,215,2.0,11.0,70,0.00,,---,0.00,0.00,VWS V14.01,2013-11-10 06:36:00,
2013-11-10 00:41:00,37.6,28.4,30.11,WSW,254,3.0,13.0,69,0.00,,---,0.00,0.00,VWS V14.01,2013-11-10 06:41:00,
2013-11-10 00:46:00,37.6,28.4,30.11,West,267,4.0,13.0,69,0.00,,---,0.00,0.00,VWS V14.01,2013-11-10 06:46:00,
2013-11-10 00:51:00,37.6,28.7,30.12,West,271,4.0,13.0,70,0.00,,---,0.00,0.00,VWS V14.01,2013-11-10 06:51:00,
2013-11-10 00:56:00,37.5,28.6,30.12,WNW,289,1.0,13.0,70,0.00,,---,0.00,0.00,VWS V14.01,2013-11-10 06:56:00,
2013-11-10 01:00:00,37.5,28.6,30.12,West,265,7.0,13.0,70,0.00,,---,0.00,0.00,VWS V14.01,2013-11-10 07:00:00,
2013-11-10 01:01:00,37.5,28.6,30.13,WSW,253,2.0,7.0,70,0.00,,---,0.00,0.00,VWS V14.01,2013-11-10 07:01:00,
2013-11-10 01:06:00,37.5,28.6,30.12,West,265,3.0,7.0,70,0.00,,---,0.00,0.00,VWS V14.01,2013-11-10 07:06:00,
2013-11-10 01:11:00,37.5,28.6,30.12,West,267,6.0,11.0,70,0.00,,---,0.00,0.00,VWS V14.01,2013-11-10 07:11:00,
2013-11-10 01:16:00,37.6,28.7,30.12,West,259,2.0,11.0,70,0.00,,---,0.00,0.00,VWS V14.01,2013-11-10 07:16:00,
2013-11-10 01:21:00,37.6,28.7,30.12,SW,221,2.0,11.0,70,0.00,,---,0.00,0.00,VWS V14.01,2013-11-10 07:21:00,
2013-11-10 01:26:00,37.5,28.6,30.12,West,268,2.0,11.0,70,0.00,,---,0.00,0.00,VWS V14.01,2013-11-10 07:26:00,
2013-11-10 01:31:00,37.5,29.0,30.12,West,263,3.0,11.0,71,0.00,,---,0.00,0.00,VWS V14.01,2013-11-10 07:31:00,
2013-11-10 01:36:00,37.5,29.0,30.13,West,269,5.0,11.0,71,0.00,,---,0.00,0.00,VWS V14.01,2013-11-10 07:36:00,
2013-11-10 01:41:00,37.4,28.9,30.13,WSW,240,3.0,11.0,71,0.00,,---,0.00,0.00,VWS V14.01,2013-11-10 07:41:00,
2013-11-10 01:46:00,37.2,28.3,30.13,West,259,4.0,11.0,70,0.00,,---,0.00,0.00,VWS V14.01,2013-11-10 07:46:00,
2013-11-10 01:51:00,36.9,28.4,30.13,West,269,3.0,11.0,71,0.00,,---,0.00,0.00,VWS V14.01,2013-11-10 07:51:00,
2013-11-10 01:56:00,36.8,28.6,30.14,West,261,3.0,11.0,72,0.00,,---,0.00,0.00,VWS V14.01,2013-11-10 07:56:00,
2013-11-10 02:00:00,36.8,28.6,30.14,West,273,5.0,11.0,72,0.00,,---,0.00,0.00,VWS V14.01,2013-11-10 08:00:00,
2013-11-10 02:01:00,36.8,28.6,30.14,West,273,10.0,10.0,72,0.00,,---,0.00,0.00,VWS V14.01,2013-11-10 08:01:00,
2013-11-10 02:06:00,36.8,28.6,30.14,West,261,4.0,10.0,72,0.00,,---,0.00,0.00,VWS V14.01,2013-11-10 08:06:00,
2013-11-10 02:11:00,36.8,28.6,30.14,West,259,7.0,10.0,72,0.00,,---,0.00,0.00,VWS V14.01,2013-11-10 08:11:00,
2013-11-10 02:16:00,36.8,28.6,30.15,WSW,248,2.0,10.0,72,0.00,,---,0.00,0.00,VWS V14.01,2013-11-10 08:16:00,
2013-11-10 02:21:00,36.8,28.6,30.15,West,263,4.0,10.0,72,0.00,,---,0.00,0.00,VWS V14.01,2013-11-10 08:21:00,
2013-11-10 02:26:00,36.7,28.9,30.15,West,266,6.0,10.0,73,0.00,,---,0.00,0.00,VWS V14.01,2013-11-10 08:26:00,
2013-11-10 02:31:00,36.7,28.9,30.15,WSW,237,4.0,10.0,73,0.00,,---,0.00,0.00,VWS V14.01,2013-11-10 08:31:00,
2013-11-10 02:36:00,36.7,28.9,30.15,West,265,3.0,10.0,73,0.00,,---,0.00,0.00,VWS V14.01,2013-11-10 08:36:00,
2013-11-10 02:41:00,36.7,28.9,30.15,WNW,290,2.0,10.0,73,0.00,,---,0.00,0.00,VWS V14.01,2013-11-10 08:41:00,
2013-11-10 02:46:00,36.7,28.9,30.16,WSW,245,5.0,10.0,73,0.00,,---,0.00,0.00,VWS V14.01,2013-11-10 08:46:00,
2013-11-10 02:51:00,36.8,29.0,30.16,West,277,4.0,10.0,73,0.00,,---,0.00,0.00,VWS V14.01,2013-11-10 08:51:00,
2013-11-10 02:56:00,36.9,29.1,30.16,SW,234,3.0,10.0,73,0.00,,---,0.00,0.00,VWS V14.01,2013-11-10 08:56:00,
2013-11-10 03:00:00,36.9,29.1,30.16,NW,305,4.0,10.0,73,0.00,,---,0.00,0.00,VWS V14.01,2013-11-10 09:00:00,
2013-11-10 03:01:00,36.9,29.1,30.16,WNW,286,3.0,4.0,73,0.00,,---,0.00,0.00,VWS V14.01,2013-11-10 09:01:00,
2013-11-10 03:06:00,36.9,29.1,30.16,WSW,247,2.0,6.0,73,0.00,,---,0.00,0.00,VWS V14.01,2013-11-10 09:06:00,
2013-11-10 03:11:00,36.9,29.1,30.16,West,261,2.0,8.0,73,0.00,,---,0.00,0.00,VWS V14.01,2013-11-10 09:11:00,
2013-11-10 03:16:00,37.0,29.2,30.16,WSW,253,5.0,8.0,73,0.00,,---,0.00,0.00,VWS V14.01,2013-11-10 09:16:00,
2013-11-10 03:21:00,36.9,29.4,30.17,WSW,240,2.0,8.0,74,0.00,,---,0.00,0.00,VWS V14.01,2013-11-10 09:21:00,
2013-11-10 03:26:00,36.9,29.4,30.17,WSW,246,2.0,8.0,74,0.00,,---,0.00,0.00,VWS V14.01,2013-11-10 09:26:00,
2013-11-10 03:31:00,36.9,29.4,30.17,WSW,247,2.0,8.0,74,0.00,,---,0.00,0.00,VWS V14.01,2013-11-10 09:31:00,
2013-11-10 03:36:00,36.9,29.4,30.17,WSW,252,3.0,8.0,74,0.00,,---,0.00,0.00,VWS V14.01,2013-11-10 09:36:00,
2013-11-10 03:41:00,36.9,29.4,30.18,SW,235,1.0,8.0,74,0.00,,---,0.00,0.00,VWS V14.01,2013-11-10 09:41:00,
2013-11-10 03:46:00,37.0,29.5,30.18,West,274,4.0,8.0,74,0.00,,---,0.00,0.00,VWS V14.01,2013-11-10 09:46:00,
2013-11-10 03:51:00,37.0,29.5,30.18,West,277,3.0,8.0,74,0.00,,---,0.00,0.00,VWS V14.01,2013-11-10 09:51:00,
2013-11-10 03:56:00,37.0,29.5,30.18,West,269,2.0,8.0,74,0.00,,---,0.00,0.00,VWS V14.01,2013-11-10 09:56:00,
2013-11-10 04:00:00,37.1,29.6,30.19,WNW,287,7.0,8.0,74,0.00,,---,0.00,0.00,VWS V14.01,2013-11-10 10:00:00,
2013-11-10 04:01:00,37.1,29.6,30.18,WNW,294,3.0,7.0,74,0.00,,---,0.00,0.00,VWS V14.01,2013-11-10 10:01:00,
2013-11-10 04:06:00,37.2,29.7,30.18,WSW,255,0.0,7.0,74,0.00,,---,0.00,0.00,VWS V14.01,2013-11-10 10:06:00,
2013-11-10 04:11:00,37.2,29.7,30.19,NNW,348,3.0,8.0,74,0.00,,---,0.00,0.00,VWS V14.01,2013-11-10 10:11:00,
2013-11-10 04:16:00,37.3,29.8,30.19,WNW,299,6.0,9.0,74,0.00,,---,0.00,0.00,VWS V14.01,2013-11-10 10:16:00,
2013-11-10 04:21:00,37.4,29.9,30.19,WNW,299,6.0,9.0,74,0.00,,---,0.00,0.00,VWS V14.01,2013-11-10 10:21:00,
2013-11-10 04:26:00,37.4,29.9,30.19,NW,312,2.0,9.0,74,0.00,,---,0.00,0.00,VWS V14.01,2013-11-10 10:26:00,
2013-11-10 04:31:00,37.5,30.0,30.20,NW,316,4.0,9.0,74,0.00,,---,0.00,0.00,VWS V14.01,2013-11-10 10:31:00,
2013-11-10 04:36:00,37.5,30.0,30.20,WSW,248,3.0,9.0,74,0.00,,---,0.00,0.00,VWS V14.01,2013-11-10 10:36:00,
2013-11-10 04:41:00,37.6,30.1,30.20,WNW,294,2.0,9.0,74,0.00,,---,0.00,0.00,VWS V14.01,2013-11-10 10:41:00,
2013-11-10 04:46:00,37.6,30.1,30.20,WSW,244,2.0,9.0,74,0.00,,---,0.00,0.00,VWS V14.01,2013-11-10 10:46:00,
2013-11-10 04:51:00,37.7,30.2,30.20,WNW,287,3.0,9.0,74,0.00,,---,0.00,0.00,VWS V14.01,2013-11-10 10:51:00,
2013-11-10 04:56:00,37.7,29.8,30.21,WNW,292,5.0,9.0,73,0.00,,---,0.00,0.00,VWS V14.01,2013-11-10 10:56:00,
2013-11-10 05:00:00,37.8,29.9,30.21,NW,318,1.0,9.0,73,0.00,,---,0.00,0.00,VWS V14.01,2013-11-10 11:00:00,
2013-11-10 05:01:00,37.8,29.9,30.21,NW,306,2.0,6.0,73,0.00,,---,0.00,0.00,VWS V14.01,2013-11-10 11:01:00,
2013-11-10 05:06:00,37.8,29.9,30.21,West,267,5.0,6.0,73,0.00,,---,0.00,0.00,VWS V14.01,2013-11-10 11:06:00,
2013-11-10 05:11:00,37.9,30.0,30.21,WNW,286,2.0,6.0,73,0.00,,---,0.00,0.00,VWS V14.01,2013-11-10 11:11:00,
2013-11-10 05:16:00,37.9,30.0,30.21,North,360,4.0,6.0,73,0.00,,---,0.00,0.00,VWS V14.01,2013-11-10 11:16:00,
2013-11-10 05:21:00,37.9,30.0,30.22,West,264,0.0,6.0,73,0.00,,---,0.00,0.00,VWS V14.01,2013-11-10 11:21:00,
2013-11-10 05:26:00,38.0,29.8,30.22,NNW,334,2.0,7.0,72,0.00,,---,0.00,0.00,VWS V14.01,2013-11-10 11:26:00,
2013-11-10 05:31:00,38.1,29.9,30.22,WNW,286,2.0,7.0,72,0.00,,---,0.00,0.00,VWS V14.01,2013-11-10 11:31:00,
2013-11-10 05:36:00,38.2,30.0,30.22,WNW,290,2.0,7.0,72,0.00,,---,0.00,0.00,VWS V14.01,2013-11-10 11:36:00,
2013-11-10 05:41:00,38.2,30.0,30.22,WNW,287,3.0,7.0,72,0.00,,---,0.00,0.00,VWS V14.01,2013-11-10 11:41:00,
2013-11-10 05:46:00,38.3,30.1,30.22,West,261,1.0,8.0,72,0.00,,---,0.00,0.00,VWS V14.01,2013-11-10 11:46:00,
2013-11-10 05:51:00,38.3,31.4,30.23,West,263,6.0,8.0,76,0.00,,---,0.00,0.00,VWS V14.01,2013-11-10 11:51:00,
2013-11-10 05:56:00,38.3,30.1,30.23,NW,310,2.0,8.0,72,0.00,,---,0.00,0.00,VWS V14.01,2013-11-10 11:56:00,
2013-11-10 06:00:00,38.3,30.1,30.23,West,266,2.0,8.0,72,0.00,,---,0.00,0.00,VWS V14.01,2013-11-10 12:00:00,
2013-11-10 06:01:00,38.3,30.4,30.24,WNW,291,3.0,6.0,73,0.00,,---,0.00,0.00,VWS V14.01,2013-11-10 12:01:00,
2013-11-10 06:06:00,38.3,30.1,30.24,NW,321,4.0,6.0,72,0.00,,---,0.00,0.00,VWS V14.01,2013-11-10 12:06:00,
2013-11-10 06:11:00,38.3,30.1,30.24,West,259,4.0,6.0,72,0.00,,---,0.00,0.00,VWS V14.01,2013-11-10 12:11:00,
2013-11-10 06:16:00,38.3,30.1,30.25,NW,310,5.0,8.0,72,0.00,,---,0.00,0.00,VWS V14.01,2013-11-10 12:16:00,
2013-11-10 06:21:00,38.4,30.2,30.25,NW,314,2.0,8.0,72,0.00,,---,0.00,0.00,VWS V14.01,2013-11-10 12:21:00,
2013-11-10 06:26:00,38.4,30.2,30.25,NNW,339,2.0,8.0,72,0.00,,---,0.00,0.00,VWS V14.01,2013-11-10 12:26:00,
2013-11-10 06:31:00,38.4,30.2,30.25,North,360,1.0,8.0,72,0.00,,---,0.00,0.00,VWS V14.01,2013-11-10 12:31:00,
2013-11-10 06:36:00,38.4,30.2,30.25,West,271,5.0,8.0,72,0.00,,---,0.00,0.00,VWS V14.01,2013-11-10 12:36:00,
2013-11-10 06:41:00,38.3,30.1,30.25,North,5,0.0,8.0,72,0.00,,---,0.00,0.00,VWS V14.01,2013-11-10 12:41:00,
2013-11-10 06:46:00,38.2,29.6,30.25,WNW,296,4.0,10.0,71,0.00,,---,0.00,0.00,VWS V14.01,2013-11-10 12:46:00,
2013-11-10 06:51:00,38.2,29.3,30.26,NW,317,4.0,10.0,70,0.00,,---,0.00,5.00,VWS V14.01,2013-11-10 12:51:00,
2013-11-10 06:56:00,38.1,28.8,30.26,North,5,0.0,10.0,69,0.00,,---,0.00,9.00,VWS V14.01,2013-11-10 12:56:00,
2013-11-10 07:00:00,38.1,28.8,30.26,NW,315,2.0,10.0,69,0.00,,---,0.00,9.00,VWS V14.01,2013-11-10 13:00:00,
2013-11-10 07:01:00,38.0,29.1,30.26,North,360,2.0,5.0,70,0.00,,---,0.00,12.00,VWS V14.01,2013-11-10 13:01:00,
2013-11-10 07:06:00,37.9,29.0,30.26,NW,309,1.0,5.0,70,0.00,,---,0.00,16.00,VWS V14.01,2013-11-10 13:06:00,
2013-11-10 07:11:00,37.9,29.0,30.26,NW,306,2.0,6.0,70,0.00,,---,0.00,16.00,VWS V14.01,2013-11-10 13:11:00,
2013-11-10 07:16:00,37.8,29.3,30.26,WNW,288,1.0,7.0,71,0.00,,---,0.00,30.00,VWS V14.01,2013-11-10 13:16:00,
2013-11-10 07:21:00,37.8,29.3,30.27,WNW,290,4.0,7.0,71,0.00,,---,0.00,32.00,VWS V14.01,2013-11-10 13:21:00,
2013-11-10 07:26:00,37.8,29.6,30.27,West,278,3.0,7.0,72,0.00,,---,0.00,33.00,VWS V14.01,2013-11-10 13:26:00,
2013-11-10 07:31:00,37.9,29.4,30.27,WNW,293,3.0,8.0,71,0.00,,---,0.00,39.00,VWS V14.01,2013-11-10 13:31:00,
2013-11-10 07:36:00,38.0,29.1,30.28,WNW,289,1.0,8.0,70,0.00,,---,0.00,40.00,VWS V14.01,2013-11-10 13:36:00,
2013-11-10 07:41:00,38.1,29.2,30.28,NW,304,2.0,8.0,70,0.00,,---,0.00,39.00,VWS V14.01,2013-11-10 13:41:00,
2013-11-10 07:46:00,38.1,29.5,30.28,North,5,2.0,8.0,71,0.00,,---,0.00,56.00,VWS V14.01,2013-11-10 13:46:00,
2013-11-10 07:51:00,38.2,29.3,30.28,WNW,287,6.0,8.0,70,0.00,,---,0.00,58.00,VWS V14.01,2013-11-10 13:51:00,
2013-11-10 07:56:00,38.2,28.9,30.29,North,5,11.0,11.0,69,0.00,,---,0.00,28.00,VWS V14.01,2013-11-10 13:56:00,
2013-11-10 08:00:00,38.2,28.9,30.29,NNE,31,4.0,11.0,69,0.00,,---,0.00,30.00,VWS V14.01,2013-11-10 14:00:00,
2013-11-10 08:01:00,38.3,28.7,30.29,North,355,3.0,5.0,68,0.00,,---,0.00,74.00,VWS V14.01,2013-11-10 14:01:00,
2013-11-10 08:06:00,38.4,28.8,30.29,North,355,0.0,5.0,68,0.00,,---,0.00,53.00,VWS V14.01,2013-11-10 14:06:00,
2013-11-10 08:11:00,38.6,29.0,30.29,North,355,2.0,9.0,68,0.00,,---,0.00,135.00,VWS V14.01,2013-11-10 14:11:00,
2013-11-10 08:16:00,38.8,28.8,30.30,North,355,2.0,9.0,67,0.00,,---,0.00,81.00,VWS V14.01,2013-11-10 14:16:00,
2013-11-10 08:21:00,39.0,29.0,30.30,NW,304,2.0,9.0,67,0.00,,---,0.00,95.00,VWS V14.01,2013-11-10 14:21:00,
2013-11-10 08:26:00,39.1,29.1,30.30,NNW,330,2.0,9.0,67,0.00,,---,0.00,102.00,VWS V14.01,2013-11-10 14:26:00,
2013-11-10 08:31:00,39.2,29.5,30.30,West,270,0.0,9.0,68,0.00,,---,0.00,86.00,VWS V14.01,2013-11-10 14:31:00,
2013-11-10 08:36:00,39.3,29.6,30.29,NW,325,5.0,9.0,68,0.00,,---,0.00,90.00,VWS V14.01,2013-11-10 14:36:00,
2013-11-10 08:41:00,39.4,29.4,30.30,WNW,294,3.0,9.0,67,0.00,,---,0.00,79.00,VWS V14.01,2013-11-10 14:41:00,
2013-11-10 08:46:00,39.4,29.0,30.30,West,271,5.0,9.0,66,0.00,,---,0.00,51.00,VWS V14.01,2013-11-10 14:46:00,
2013-11-10 08:51:00,39.3,28.5,30.30,NNE,15,3.0,9.0,65,0.00,,---,0.00,107.00,VWS V14.01,2013-11-10 14:51:00,
2013-11-10 08:56:00,39.5,28.7,30.30,North,9,2.0,10.0,65,0.00,,---,0.00,77.00,VWS V14.01,2013-11-10 14:56:00,
2013-11-10 09:00:00,39.5,28.7,30.30,NNW,344,8.0,10.0,65,0.00,,---,0.00,83.00,VWS V14.01,2013-11-10 15:00:00,
2013-11-10 09:01:00,39.6,28.4,30.30,NNE,22,4.0,12.0,64,0.00,,---,0.00,65.00,VWS V14.01,2013-11-10 15:01:00,
2013-11-10 09:06:00,39.6,28.4,30.30,NNW,340,4.0,12.0,64,0.00,,---,0.00,76.00,VWS V14.01,2013-11-10 15:06:00,
2013-11-10 09:11:00,39.8,28.6,30.31,North,355,4.0,12.0,64,0.00,,---,0.00,67.00,VWS V14.01,2013-11-10 15:11:00,
2013-11-10 09:16:00,40.0,28.8,30.31,NW,316,1.0,12.0,64,0.00,,---,0.00,130.00,VWS V14.01,2013-11-10 15:16:00,
2013-11-10 09:21:00,40.2,29.0,30.31,NW,321,3.0,12.0,64,0.00,,---,0.00,58.00,VWS V14.01,2013-11-10 15:21:00,
2013-11-10 09:26:00,40.4,29.6,30.31,WNW,282,3.0,12.0,65,0.00,,---,0.00,176.00,VWS V14.01,2013-11-10 15:26:00,
2013-11-10 09:31:00,40.5,28.9,30.32,NW,304,4.0,12.0,63,0.00,,---,0.00,232.00,VWS V14.01,2013-11-10 15:31:00,
2013-11-10 09:36:00,40.8,29.6,30.31,WSW,247,4.0,12.0,64,0.00,,---,0.00,262.00,VWS V14.01,2013-11-10 15:36:00,
2013-11-10 09:41:00,41.3,30.1,30.32,West,263,4.0,12.0,64,0.00,,---,0.00,380.00,VWS V14.01,2013-11-10 15:41:00,
2013-11-10 09:46:00,41.4,30.1,30.32,WSW,248,1.0,12.0,64,0.00,,---,0.00,146.00,VWS V14.01,2013-11-10 15:46:00,
2013-11-10 09:51:00,41.6,30.3,30.32,West,263,4.0,12.0,64,0.00,,---,0.00,445.00,VWS V14.01,2013-11-10 15:51:00,
2013-11-10 09:56:00,41.8,30.5,30.32,WSW,240,3.0,12.0,64,0.00,,---,0.00,234.00,VWS V14.01,2013-11-10 15:56:00,
2013-11-10 10:00:00,41.8,30.5,30.32,WSW,250,3.0,12.0,64,0.00,,---,0.00,304.00,VWS V14.01,2013-11-10 16:00:00,
2013-11-10 10:01:00,41.8,30.5,30.32,WSW,244,3.0,4.0,64,0.00,,---,0.00,478.00,VWS V14.01,2013-11-10 16:01:00,
2013-11-10 10:06:00,42.0,29.9,30.32,WNW,298,2.0,9.0,62,0.00,,---,0.00,441.00,VWS V14.01,2013-11-10 16:06:00,
2013-11-10 10:11:00,42.4,29.9,30.32,NW,322,1.0,9.0,61,0.00,,---,0.00,448.00,VWS V14.01,2013-11-10 16:11:00,
2013-11-10 10:16:00,42.4,29.5,30.32,NNW,330,2.0,9.0,60,0.00,,---,0.00,454.00,VWS V14.01,2013-11-10 16:16:00,
2013-11-10 10:21:00,43.0,29.7,30.32,WSW,254,0.0,9.0,59,0.00,,---,0.00,459.00,VWS V14.01,2013-11-10 16:21:00,
2013-11-10 10:26:00,43.3,30.0,30.32,WNW,296,1.0,9.0,59,0.00,,---,0.00,468.00,VWS V14.01,2013-11-10 16:26:00,
2013-11-10 10:31:00,43.6,29.8,30.32,NW,319,5.0,9.0,58,0.00,,---,0.00,475.00,VWS V14.01,2013-11-10 16:31:00,
2013-11-10 10:36:00,43.6,31.0,30.32,WNW,282,3.0,9.0,61,0.00,,---,0.00,480.00,VWS V14.01,2013-11-10 16:36:00,
2013-11-10 10:41:00,43.6,29.4,30.31,SW,224,3.0,9.0,57,0.00,,---,0.00,483.00,VWS V14.01,2013-11-10 16:41:00,
2013-11-10 10:46:00,43.9,29.7,30.31,WSW,245,4.0,9.0,57,0.00,,---,0.00,492.00,VWS V14.01,2013-11-10 16:46:00,
2013-11-10 10:51:00,43.6,29.8,30.31,WSW,246,3.0,9.0,58,0.00,,---,0.00,496.00,VWS V14.01,2013-11-10 16:51:00,
2013-11-10 10:56:00,43.7,29.5,30.31,WSW,252,2.0,9.0,57,0.00,,---,0.00,497.00,VWS V14.01,2013-11-10 16:56:00,
2013-11-10 11:00:00,43.5,29.7,30.31,WNW,295,3.0,9.0,58,0.00,,---,0.00,499.00,VWS V14.01,2013-11-10 17:00:00,
2013-11-10 11:01:00,43.7,29.5,30.31,WNW,294,3.0,7.0,57,0.00,,---,0.00,501.00,VWS V14.01,2013-11-10 17:01:00,
2013-11-10 11:06:00,44.1,29.4,30.31,NW,321,4.0,7.0,56,0.00,,---,0.00,504.00,VWS V14.01,2013-11-10 17:06:00,
2013-11-10 11:11:00,44.0,29.3,30.31,West,264,5.0,7.0,56,0.00,,---,0.00,506.00,VWS V14.01,2013-11-10 17:11:00,
2013-11-10 11:16:00,43.7,29.5,30.31,West,268,4.0,7.0,57,0.00,,---,0.00,510.00,VWS V14.01,2013-11-10 17:16:00,
2013-11-10 11:21:00,43.9,29.7,30.30,West,277,3.0,7.0,57,0.00,,---,0.00,512.00,VWS V14.01,2013-11-10 17:21:00,
2013-11-10 11:26:00,44.4,30.6,30.30,SW,214,5.0,7.0,58,0.00,,---,0.00,513.00,VWS V14.01,2013-11-10 17:26:00,
2013-11-10 11:31:00,44.1,29.4,30.30,WSW,254,3.0,7.0,56,0.00,,---,0.00,513.00,VWS V14.01,2013-11-10 17:31:00,
2013-11-10 11:36:00,44.7,30.4,30.30,WSW,250,3.0,7.0,57,0.00,,---,0.00,517.00,VWS V14.01,2013-11-10 17:36:00,
2013-11-10 11:41:00,44.7,30.4,30.29,WSW,253,2.0,7.0,57,0.00,,---,0.00,517.00,VWS V14.01,2013-11-10 17:41:00,
2013-11-10 11:46:00,45.0,30.3,30.29,NNW,336,1.0,7.0,56,0.00,,---,0.00,515.00,VWS V14.01,2013-11-10 17:46:00,
2013-11-10 11:51:00,45.5,31.2,30.29,NNW,338,0.0,7.0,57,0.00,,---,0.00,517.00,VWS V14.01,2013-11-10 17:51:00,
2013-11-10 11:56:00,46.0,30.3,30.29,NNW,327,4.0,7.0,54,0.00,,---,0.00,515.00,VWS V14.01,2013-11-10 17:56:00,
2013-11-10 12:00:00,45.6,30.4,30.28,WSW,243,4.0,7.0,55,0.00,,---,0.00,517.00,VWS V14.01,2013-11-10 18:00:00,
2013-11-10 12:01:00,45.6,31.3,30.29,WNW,285,3.0,5.0,57,0.00,,---,0.00,517.00,VWS V14.01,2013-11-10 18:01:00,
2013-11-10 12:06:00,45.2,30.5,30.28,NNW,333,3.0,5.0,56,0.00,,---,0.00,517.00,VWS V14.01,2013-11-10 18:06:00,
2013-11-10 12:11:00,45.5,30.7,30.28,WNW,289,3.0,7.0,56,0.00,,---,0.00,515.00,VWS V14.01,2013-11-10 18:11:00,
2013-11-10 12:16:00,45.9,30.7,30.28,SW,232,5.0,7.0,55,0.00,,---,0.00,512.00,VWS V14.01,2013-11-10 18:16:00,
2013-11-10 12:21:00,45.5,31.2,30.28,SSW,211,4.0,7.0,57,0.00,,---,0.00,450.00,VWS V14.01,2013-11-10 18:21:00,
2013-11-10 12:26:00,45.5,29.8,30.27,WSW,240,2.0,7.0,54,0.00,,---,0.00,390.00,VWS V14.01,2013-11-10 18:26:00,
2013-11-10 12:31:00,45.8,31.0,30.27,SSW,201,4.0,7.0,56,0.00,,---,0.00,366.00,VWS V14.01,2013-11-10 18:31:00,
2013-11-10 12:36:00,46.1,30.4,30.27,SW,230,2.0,7.0,54,0.00,,---,0.00,392.00,VWS V14.01,2013-11-10 18:36:00,
2013-11-10 12:41:00,45.7,30.5,30.27,SSW,206,3.0,7.0,55,0.00,,---,0.00,279.00,VWS V14.01,2013-11-10 18:41:00,
2013-11-10 12:46:00,45.8,30.6,30.27,SSW,206,2.0,7.0,55,0.00,,---,0.00,329.00,VWS V14.01,2013-11-10 18:46:00,
2013-11-10 12:51:00,46.3,31.9,30.26,SSW,202,6.0,7.0,57,0.00,,---,0.00,357.00,VWS V14.01,2013-11-10 18:51:00,
2013-11-10 12:56:00,46.3,31.5,30.26,SSW,212,4.0,7.0,56,0.00,,---,0.00,360.00,VWS V14.01,2013-11-10 18:56:00,
2013-11-10 13:00:00,46.3,30.6,30.26,WSW,247,3.0,7.0,54,0.00,,---,0.00,464.00,VWS V14.01,2013-11-10 19:00:00,
2013-11-10 13:01:00,46.7,32.3,30.26,SW,233,6.0,6.0,57,0.00,,---,0.00,404.00,VWS V14.01,2013-11-10 19:01:00,
2013-11-10 13:06:00,46.8,31.0,30.26,WSW,238,4.0,7.0,54,0.00,,---,0.00,434.00,VWS V14.01,2013-11-10 19:06:00,
2013-11-10 13:11:00,46.8,31.0,30.26,SW,218,5.0,8.0,54,0.00,,---,0.00,459.00,VWS V14.01,2013-11-10 19:11:00,
2013-11-10 13:16:00,46.6,30.4,30.26,SW,225,4.0,9.0,53,0.00,,---,0.00,450.00,VWS V14.01,2013-11-10 19:16:00,
2013-11-10 13:21:00,46.8,30.6,30.25,SW,223,7.0,9.0,53,0.00,,---,0.00,445.00,VWS V14.01,2013-11-10 19:21:00,
2013-11-10 13:26:00,47.2,31.9,30.25,SW,223,3.0,9.0,55,0.00,,---,0.00,436.00,VWS V14.01,2013-11-10 19:26:00,
2013-11-10 13:31:00,47.3,31.5,30.25,SW,215,8.0,9.0,54,0.00,,---,0.00,427.00,VWS V14.01,2013-11-10 19:31:00,
2013-11-10 13:36:00,47.1,30.9,30.25,SSW,199,8.0,9.0,53,0.00,,---,0.00,420.00,VWS V14.01,2013-11-10 19:36:00,
2013-11-10 13:41:00,47.3,30.6,30.25,SW,216,3.0,10.0,52,0.00,,---,0.00,410.00,VWS V14.01,2013-11-10 19:41:00,
2013-11-10 13:46:00,47.6,32.2,30.25,SSW,213,5.0,10.0,55,0.00,,---,0.00,404.00,VWS V14.01,2013-11-10 19:46:00,
2013-11-10 13:51:00,47.6,31.3,30.25,SSW,204,4.0,10.0,53,0.00,,---,0.00,392.00,VWS V14.01,2013-11-10 19:51:00,
2013-11-10 13:56:00,47.7,31.9,30.25,SW,222,4.0,10.0,54,0.00,,---,0.00,381.00,VWS V14.01,2013-11-10 19:56:00,
2013-11-10 14:00:00,47.8,32.0,30.25,SW,234,4.0,10.0,54,0.00,,---,0.00,376.00,VWS V14.01,2013-11-10 20:00:00,
2013-11-10 14:01:00,47.8,32.0,30.25,SW,221,8.0,8.0,54,0.00,,---,0.00,373.00,VWS V14.01,2013-11-10 20:01:00,
2013-11-10 14:06:00,47.7,31.4,30.25,SW,225,5.0,8.0,53,0.00,,---,0.00,360.00,VWS V14.01,2013-11-10 20:06:00,
2013-11-10 14:11:00,47.7,31.9,30.25,SW,222,4.0,8.0,54,0.00,,---,0.00,350.00,VWS V14.01,2013-11-10 20:11:00,
2013-11-10 14:16:00,47.7,31.9,30.25,SSW,198,7.0,8.0,54,0.00,,---,0.00,343.00,VWS V14.01,2013-11-10 20:16:00,
2013-11-10 14:21:00,47.8,31.0,30.25,SW,236,10.0,11.0,52,0.00,,---,0.00,334.00,VWS V14.01,2013-11-10 20:21:00,
2013-11-10 14:26:00,47.5,30.8,30.25,SW,216,5.0,11.0,52,0.00,,---,0.00,323.00,VWS V14.01,2013-11-10 20:26:00,
2013-11-10 14:31:00,47.7,31.4,30.25,SW,218,3.0,11.0,53,0.00,,---,0.00,322.00,VWS V14.01,2013-11-10 20:31:00,
2013-11-10 14:36:00,47.6,31.3,30.25,SW,235,5.0,11.0,53,0.00,,---,0.00,102.00,VWS V14.01,2013-11-10 20:36:00,
2013-11-10 14:41:00,47.1,30.4,30.25,SW,234,4.0,11.0,52,0.00,,---,0.00,135.00,VWS V14.01,2013-11-10 20:41:00,
2013-11-10 14:46:00,46.7,30.5,30.25,SW,219,4.0,11.0,53,0.00,,---,0.00,148.00,VWS V14.01,2013-11-10 20:46:00,
2013-11-10 14:51:00,46.8,31.5,30.25,SSW,213,5.0,11.0,55,0.00,,---,0.00,142.00,VWS V14.01,2013-11-10 20:51:00,
2013-11-10 14:56:00,46.8,31.0,30.24,SW,231,5.0,11.0,54,0.00,,---,0.00,127.00,VWS V14.01,2013-11-10 20:56:00,
2013-11-10 15:00:00,46.8,31.5,30.24,SW,223,5.0,11.0,55,0.00,,---,0.00,121.00,VWS V14.01,2013-11-10 21:00:00,
2013-11-10 15:01:00,46.8,31.5,30.24,SW,221,5.0,5.0,55,0.00,,---,0.00,118.00,VWS V14.01,2013-11-10 21:01:00,
2013-11-10 15:06:00,46.7,31.4,30.24,SW,217,6.0,7.0,55,0.00,,---,0.00,105.00,VWS V14.01,2013-11-10 21:06:00,
2013-11-10 15:11:00,46.5,31.2,30.24,SW,218,4.0,7.0,55,0.00,,---,0.00,100.00,VWS V14.01,2013-11-10 21:11:00,
2013-11-10 15:16:00,46.4,32.0,30.24,SSW,210,6.0,10.0,57,0.00,,---,0.00,91.00,VWS V14.01,2013-11-10 21:16:00,
2013-11-10 15:21:00,46.3,31.9,30.24,SSW,211,2.0,10.0,57,0.00,,---,0.00,81.00,VWS V14.01,2013-11-10 21:21:00,
2013-11-10 15:26:00,46.2,31.8,30.24,SSW,210,4.0,10.0,57,0.00,,---,0.00,69.00,VWS V14.01,2013-11-10 21:26:00,
2013-11-10 15:31:00,46.1,31.7,30.23,SW,229,4.0,10.0,57,0.00,,---,0.00,60.00,VWS V14.01,2013-11-10 21:31:00,
2013-11-10 15:36:00,46.0,31.6,30.23,SSW,206,5.0,10.0,57,0.00,,---,0.00,49.00,VWS V14.01,2013-11-10 21:36:00,
2013-11-10 15:41:00,45.8,31.9,30.23,SSW,211,4.0,10.0,58,0.00,,---,0.00,42.00,VWS V14.01,2013-11-10 21:41:00,
2013-11-10 15:46:00,45.7,31.4,30.24,SW,227,3.0,10.0,57,0.00,,---,0.00,35.00,VWS V14.01,2013-11-10 21:46:00,
2013-11-10 15:51:00,45.5,31.2,30.23,SW,232,3.0,10.0,57,0.00,,---,0.00,32.00,VWS V14.01,2013-11-10 21:51:00,
2013-11-10 15:56:00,45.4,31.1,30.23,SW,233,3.0,10.0,57,0.00,,---,0.00,28.00,VWS V14.01,2013-11-10 21:56:00,
2013-11-10 16:00:00,45.3,31.4,30.23,SW,233,2.0,10.0,58,0.00,,---,0.00,26.00,VWS V14.01,2013-11-10 22:00:00,
2013-11-10 16:01:00,45.2,31.7,30.23,SW,231,2.0,4.0,59,0.00,,---,0.00,25.00,VWS V14.01,2013-11-10 22:01:00,
2013-11-10 16:06:00,45.1,31.2,30.23,SW,232,3.0,5.0,58,0.00,,---,0.00,21.00,VWS V14.01,2013-11-10 22:06:00,
2013-11-10 16:11:00,45.0,31.1,30.23,SW,232,2.0,5.0,58,0.00,,---,0.00,16.00,VWS V14.01,2013-11-10 22:11:00,
2013-11-10 16:16:00,44.8,30.9,30.23,WSW,245,3.0,5.0,58,0.00,,---,0.00,12.00,VWS V14.01,2013-11-10 22:16:00,
2013-11-10 16:21:00,44.7,31.3,30.23,WSW,245,0.0,5.0,59,0.00,,---,0.00,9.00,VWS V14.01,2013-11-10 22:21:00,
2013-11-10 16:26:00,44.6,31.6,30.23,WSW,245,1.0,5.0,60,0.00,,---,0.00,5.00,VWS V14.01,2013-11-10 22:26:00,
2013-11-10 16:31:00,44.4,31.4,30.23,WSW,245,2.0,5.0,60,0.00,,---,0.00,0.00,VWS V14.01,2013-11-10 22:31:00,
2013-11-10 16:36:00,44.2,32.4,30.23,WSW,245,1.0,5.0,63,0.00,,---,0.00,0.00,VWS V14.01,2013-11-10 22:36:00,
2013-11-10 16:41:00,44.0,31.4,30.23,WSW,245,1.0,5.0,61,0.00,,---,0.00,0.00,VWS V14.01,2013-11-10 22:41:00,
2013-11-10 16:46:00,43.9,31.7,30.23,WSW,245,1.0,5.0,62,0.00,,---,0.00,0.00,VWS V14.01,2013-11-10 22:46:00,
2013-11-10 16:51:00,43.8,32.0,30.23,WSW,245,1.0,5.0,63,0.00,,---,0.00,0.00,VWS V14.01,2013-11-10 22:51:00,
2013-11-10 16:56:00,43.7,31.5,30.23,WSW,245,0.0,5.0,62,0.00,,---,0.00,0.00,VWS V14.01,2013-11-10 22:56:00,
2013-11-10 17:00:00,43.6,31.9,30.23,WSW,245,0.0,5.0,63,0.00,,---,0.00,0.00,VWS V14.01,2013-11-10 23:00:00,
2013-11-10 17:01:00,43.6,31.5,30.23,WSW,245,0.0,0.0,62,0.00,,---,0.00,0.00,VWS V14.01,2013-11-10 23:01:00,
2013-11-10 17:06:00,43.6,31.5,30.22,WSW,245,0.0,0.0,62,0.00,,---,0.00,0.00,VWS V14.01,2013-11-10 23:06:00,
2013-11-10 17:11:00,43.6,31.5,30.22,WSW,245,0.0,0.0,62,0.00,,---,0.00,0.00,VWS V14.01,2013-11-10 23:11:00,
2013-11-10 17:16:00,43.6,31.5,30.22,WSW,245,0.0,0.0,62,0.00,,---,0.00,0.00,VWS V14.01,2013-11-10 23:16:00,
2013-11-10 17:21:00,43.6,31.5,30.22,WSW,245,0.0,1.0,62,0.00,,---,0.00,0.00,VWS V14.01,2013-11-10 23:21:00,
2013-11-10 17:26:00,43.4,32.0,30.22,WSW,245,1.0,1.0,64,0.00,,---,0.00,0.00,VWS V14.01,2013-11-10 23:26:00,
2013-11-10 17:31:00,43.2,32.2,30.22,WSW,245,2.0,2.0,65,0.00,,---,0.00,0.00,VWS V14.01,2013-11-10 23:31:00,
2013-11-10 17:36:00,43.0,32.8,30.22,WSW,245,2.0,3.0,67,0.00,,---,0.00,0.00,VWS V14.01,2013-11-10 23:36:00,
2013-11-10 17:41:00,42.9,32.7,30.22,SW,223,1.0,3.0,67,0.00,,---,0.00,0.00,VWS V14.01,2013-11-10 23:41:00,
2013-11-10 17:46:00,42.9,32.7,30.23,SW,221,2.0,3.0,67,0.00,,---,0.00,0.00,VWS V14.01,2013-11-10 23:46:00,
2013-11-10 17:51:00,42.9,32.7,30.23,SW,219,5.0,5.0,67,0.00,,---,0.00,0.00,VWS V14.01,2013-11-10 23:51:00,
2013-11-10 17:56:00,43.1,32.2,30.23,SW,215,1.0,5.0,65,0.00,,---,0.00,0.00,VWS V14.01,2013-11-10 23:56:00,
2013-11-10 18:00:00,43.1,32.2,30.23,SW,215,2.0,5.0,65,0.00,,---,0.00,0.00,VWS V14.01,2013-11-11 00:00:00,
2013-11-10 18:01:00,43.1,32.2,30.23,SW,215,2.0,3.0,65,0.00,,---,0.00,0.00,VWS V14.01,2013-11-11 00:01:00,
2013-11-10 18:06:00,43.1,31.8,30.23,SW,231,2.0,4.0,64,0.00,,---,0.00,0.00,VWS V14.01,2013-11-11 00:06:00,
2013-11-10 18:11:00,43.2,31.9,30.22,SW,227,3.0,4.0,64,0.00,,---,0.00,0.00,VWS V14.01,2013-11-11 00:11:00,
2013-11-10 18:16:00,43.2,31.9,30.22,SW,222,1.0,4.0,64,0.00,,---,0.00,0.00,VWS V14.01,2013-11-11 00:16:00,
2013-11-10 18:21:00,43.2,31.9,30.22,SW,222,2.0,4.0,64,0.00,,---,0.00,0.00,VWS V14.01,2013-11-11 00:21:00,
2013-11-10 18:26:00,43.2,31.9,30.21,SW,222,0.0,4.0,64,0.00,,---,0.00,0.00,VWS V14.01,2013-11-11 00:26:00,
2013-11-10 18:31:00,43.2,31.9,30.21,SW,222,1.0,4.0,64,0.00,,---,0.00,0.00,VWS V14.01,2013-11-11 00:31:00,
2013-11-10 18:36:00,43.2,31.9,30.21,SW,222,2.0,4.0,64,0.00,,---,0.00,0.00,VWS V14.01,2013-11-11 00:36:00,
2013-11-10 18:41:00,43.2,32.2,30.21,SW,222,1.0,4.0,65,0.00,,---,0.00,0.00,VWS V14.01,2013-11-11 00:41:00,
2013-11-10 18:46:00,43.1,32.5,30.20,SW,222,2.0,4.0,66,0.00,,---,0.00,0.00,VWS V14.01,2013-11-11 00:46:00,
2013-11-10 18:51:00,43.1,32.2,30.20,SW,222,0.0,4.0,65,0.00,,---,0.00,0.00,VWS V14.01,2013-11-11 00:51:00,
2013-11-10 18:56:00,43.0,32.4,30.20,SW,222,2.0,4.0,66,0.00,,---,0.00,0.00,VWS V14.01,2013-11-11 00:56:00,
2013-11-10 19:00:00,43.0,32.1,30.19,SW,222,2.0,4.0,65,0.00,,---,0.00,0.00,VWS V14.01,2013-11-11 01:00:00,
2013-11-10 19:01:00,43.0,32.4,30.19,SW,221,1.0,2.0,66,0.00,,---,0.00,0.00,VWS V14.01,2013-11-11 01:01:00,
2013-11-10 19:06:00,42.9,32.0,30.19,SW,222,1.0,2.0,65,0.00,,---,0.00,0.00,VWS V14.01,2013-11-11 01:06:00,
2013-11-10 19:11:00,42.9,32.0,30.19,SW,222,0.0,2.0,65,0.00,,---,0.00,0.00,VWS V14.01,2013-11-11 01:11:00,
2013-11-10 19:16:00,42.9,32.3,30.18,SW,222,1.0,2.0,66,0.00,,---,0.00,0.00,VWS V14.01,2013-11-11 01:16:00,
2013-11-10 19:21:00,42.8,32.2,30.18,SW,222,0.0,2.0,66,0.00,,---,0.00,0.00,VWS V14.01,2013-11-11 01:21:00,
2013-11-10 19:26:00,42.8,32.2,30.18,SW,222,0.0,2.0,66,0.00,,---,0.00,0.00,VWS V14.01,2013-11-11 01:26:00,
2013-11-10 19:31:00,42.7,32.2,30.18,SW,222,0.0,2.0,66,0.00,,---,0.00,0.00,VWS V14.01,2013-11-11 01:31:00,
2013-11-10 19:36:00,42.7,32.2,30.17,SW,222,0.0,2.0,66,0.00,,---,0.00,0.00,VWS V14.01,2013-11-11 01:36:00,
2013-11-10 19:41:00,42.7,32.2,30.17,SW,222,2.0,2.0,66,0.00,,---,0.00,0.00,VWS V14.01,2013-11-11 01:41:00,
2013-11-10 19:46:00,42.7,32.2,30.17,SW,222,0.0,3.0,66,0.00,,---,0.00,0.00,VWS V14.01,2013-11-11 01:46:00,
2013-11-10 19:51:00,42.7,32.5,30.17,SW,222,2.0,3.0,67,0.00,,---,0.00,0.00,VWS V14.01,2013-11-11 01:51:00,
2013-11-10 19:56:00,42.8,32.2,30.17,SW,222,3.0,4.0,66,0.00,,---,0.00,0.00,VWS V14.01,2013-11-11 01:56:00,
2013-11-10 20:00:00,42.8,32.2,30.17,SSW,209,0.0,4.0,66,0.00,,---,0.00,0.00,VWS V14.01,2013-11-11 02:00:00,
2013-11-10 20:01:00,42.8,32.2,30.17,SSW,209,2.0,3.0,66,0.00,,---,0.00,0.00,VWS V14.01,2013-11-11 02:01:00,
2013-11-10 20:06:00,42.8,32.2,30.17,SW,223,1.0,4.0,66,0.00,,---,0.00,0.00,VWS V14.01,2013-11-11 02:06:00,
2013-11-10 20:11:00,42.8,32.2,30.17,SW,223,2.0,4.0,66,0.00,,---,0.00,0.00,VWS V14.01,2013-11-11 02:11:00,
2013-11-10 20:16:00,42.8,32.2,30.17,SW,223,0.0,4.0,66,0.00,,---,0.00,0.00,VWS V14.01,2013-11-11 02:16:00,
2013-11-10 20:21:00,42.9,32.3,30.17,SW,222,1.0,4.0,66,0.00,,---,0.00,0.00,VWS V14.01,2013-11-11 02:21:00,
2013-11-10 20:26:00,42.9,32.3,30.17,SW,222,0.0,4.0,66,0.00,,---,0.00,0.00,VWS V14.01,2013-11-11 02:26:00,
2013-11-10 20:31:00,42.8,32.6,30.17,SW,222,1.0,4.0,67,0.00,,---,0.00,0.00,VWS V14.01,2013-11-11 02:31:00,
2013-11-10 20:36:00,42.8,32.6,30.17,SW,232,1.0,6.0,67,0.00,,---,0.00,0.00,VWS V14.01,2013-11-11 02:36:00,
2013-11-10 20:41:00,42.7,32.5,30.16,SW,231,2.0,6.0,67,0.00,,---,0.00,0.00,VWS V14.01,2013-11-11 02:41:00,
2013-11-10 20:46:00,42.7,32.5,30.16,SW,219,2.0,6.0,67,0.00,,---,0.00,0.00,VWS V14.01,2013-11-11 02:46:00,
2013-11-10 20:51:00,42.7,32.5,30.16,SW,220,2.0,6.0,67,0.00,,---,0.00,0.00,VWS V14.01,2013-11-11 02:51:00,
2013-11-10 20:56:00,42.6,32.4,30.16,SW,219,3.0,6.0,67,0.00,,---,0.00,0.00,VWS V14.01,2013-11-11 02:56:00,
2013-11-10 21:00:00,42.6,32.4,30.16,SW,217,2.0,6.0,67,0.00,,---,0.00,0.00,VWS V14.01,2013-11-11 03:00:00,
2013-11-10 21:01:00,42.6,32.4,30.16,SW,236,5.0,6.0,67,0.00,,---,0.00,0.00,VWS V14.01,2013-11-11 03:01:00,
2013-11-10 21:06:00,42.6,32.4,30.16,WSW,242,4.0,6.0,67,0.00,,---,0.00,0.00,VWS V14.01,2013-11-11 03:06:00,
2013-11-10 21:11:00,42.5,32.3,30.16,SW,234,3.0,6.0,67,0.00,,---,0.00,0.00,VWS V14.01,2013-11-11 03:11:00,
2013-11-10 21:16:00,42.4,32.6,30.16,SW,224,3.0,7.0,68,0.00,,---,0.00,0.00,VWS V14.01,2013-11-11 03:16:00,
2013-11-10 21:21:00,42.4,32.6,30.16,SW,219,2.0,7.0,68,0.00,,---,0.00,0.00,VWS V14.01,2013-11-11 03:21:00,
2013-11-10 21:26:00,42.3,32.5,30.16,SW,219,2.0,7.0,68,0.00,,---,0.00,0.00,VWS V14.01,2013-11-11 03:26:00,
2013-11-10 21:31:00,42.3,32.5,30.16,SW,219,3.0,7.0,68,0.00,,---,0.00,0.00,VWS V14.01,2013-11-11 03:31:00,
2013-11-10 21:36:00,42.2,32.8,30.16,WSW,242,4.0,7.0,69,0.00,,---,0.00,0.00,VWS V14.01,2013-11-11 03:36:00,
2013-11-10 21:41:00,42.2,32.4,30.16,SW,235,3.0,7.0,68,0.00,,---,0.00,0.00,VWS V14.01,2013-11-11 03:41:00,
2013-11-10 21:46:00,42.1,32.7,30.16,SW,234,2.0,7.0,69,0.00,,---,0.00,0.00,VWS V14.01,2013-11-11 03:46:00,
2013-11-10 21:51:00,42.1,32.7,30.16,SW,232,3.0,7.0,69,0.00,,---,0.00,0.00,VWS V14.01,2013-11-11 03:51:00,
2013-11-10 21:56:00,42.0,32.6,30.15,SW,232,2.0,7.0,69,0.00,,---,0.00,0.00,VWS V14.01,2013-11-11 03:56:00,
2013-11-10 22:00:00,41.9,32.5,30.15,SW,227,1.0,7.0,69,0.00,,---,0.00,0.00,VWS V14.01,2013-11-11 04:00:00,
2013-11-10 22:01:00,41.9,32.5,30.15,SW,218,4.0,5.0,69,0.00,,---,0.00,0.00,VWS V14.01,2013-11-11 04:01:00,
2013-11-10 22:06:00,41.9,32.5,30.15,SW,227,4.0,5.0,69,0.00,,---,0.00,0.00,VWS V14.01,2013-11-11 04:06:00,
2013-11-10 22:11:00,41.8,32.4,30.14,SSW,206,4.0,7.0,69,0.00,,---,0.00,0.00,VWS V14.01,2013-11-11 04:11:00,
2013-11-10 22:16:00,41.8,32.4,30.14,SSW,207,3.0,7.0,69,0.00,,---,0.00,0.00,VWS V14.01,2013-11-11 04:16:00,
2013-11-10 22:21:00,41.8,32.4,30.14,SW,214,4.0,7.0,69,0.00,,---,0.00,0.00,VWS V14.01,2013-11-11 04:21:00,
2013-11-10 22:26:00,41.8,32.4,30.15,SW,234,4.0,7.0,69,0.00,,---,0.00,0.00,VWS V14.01,2013-11-11 04:26:00,
2013-11-10 22:31:00,41.8,32.4,30.14,SSW,211,5.0,7.0,69,0.00,,---,0.00,0.00,VWS V14.01,2013-11-11 04:31:00,
2013-11-10 22:36:00,41.8,32.4,30.14,SSW,212,4.0,7.0,69,0.00,,---,0.00,0.00,VWS V14.01,2013-11-11 04:36:00,
2013-11-10 22:41:00,41.8,32.4,30.14,SW,223,4.0,7.0,69,0.00,,---,0.00,0.00,VWS V14.01,2013-11-11 04:41:00,
2013-11-10 22:46:00,41.8,32.4,30.14,SW,233,4.0,9.0,69,0.00,,---,0.00,0.00,VWS V14.01,2013-11-11 04:46:00,
2013-11-10 22:51:00,41.8,32.4,30.15,SW,228,3.0,9.0,69,0.00,,---,0.00,0.00,VWS V14.01,2013-11-11 04:51:00,
2013-11-10 22:56:00,41.7,32.3,30.15,WSW,239,2.0,9.0,69,0.00,,---,0.00,0.00,VWS V14.01,2013-11-11 04:56:00,
2013-11-10 23:00:00,41.7,32.3,30.14,SW,232,5.0,9.0,69,0.00,,---,0.00,0.00,VWS V14.01,2013-11-11 05:00:00,
2013-11-10 23:01:00,41.7,32.3,30.14,SW,223,1.0,5.0,69,0.00,,---,0.00,0.00,VWS V14.01,2013-11-11 05:01:00,
2013-11-10 23:06:00,41.6,32.6,30.14,SW,232,3.0,5.0,70,0.00,,---,0.00,0.00,VWS V14.01,2013-11-11 05:06:00,
2013-11-10 23:12:00,41.6,32.6,30.13,SSW,207,4.0,6.0,70,0.00,,---,0.00,0.00,VWS V14.01,2013-11-11 05:12:00,
2013-11-10 23:17:00,41.7,32.3,30.13,SSW,207,4.0,7.0,69,0.00,,---,0.00,0.00,VWS V14.01,2013-11-11 05:17:00,
2013-11-10 23:22:00,41.8,32.4,30.13,SSW,213,4.0,9.0,69,0.00,,---,0.00,0.00,VWS V14.01,2013-11-11 05:22:00,
2013-11-10 23:27:00,41.8,32.4,30.12,SSW,205,4.0,9.0,69,0.00,,---,0.00,0.00,VWS V14.01,2013-11-11 05:27:00,
2013-11-10 23:32:00,41.8,32.4,30.12,SW,214,2.0,9.0,69,0.00,,---,0.00,0.00,VWS V14.01,2013-11-11 05:32:00,
2013-11-10 23:37:00,41.8,32.4,30.12,SW,220,3.0,9.0,69,0.00,,---,0.00,0.00,VWS V14.01,2013-11-11 05:37:00,
2013-11-10 23:42:00,41.8,32.8,30.12,SW,227,0.0,9.0,70,0.00,,---,0.00,0.00,VWS V14.01,2013-11-11 05:42:00,
2013-11-10 23:47:00,41.8,32.8,30.12,SSW,208,1.0,9.0,70,0.00,,---,0.00,0.00,VWS V14.01,2013-11-11 05:47:00,
2013-11-10 23:52:00,41.7,32.7,30.12,SW,221,4.0,9.0,70,0.00,,---,0.00,0.00,VWS V14.01,2013-11-11 05:52:00,
2013-11-10 23:57:00,41.8,32.8,30.10,SSW,204,5.0,9.0,70,0.00,,---,0.00,0.00,VWS V14.01,2013-11-11 05:57:00,